Regional Weather Roundup
Issued by NWS

Home | Current Version | Previous Version | Graphics & Text | Print | Product List | Glossary On
Versions: 1 2 3 4 5 6 7 8 9 10 11 12 13 14 15 16 17 18 19 20 21 22 23 24 25 26 27 28 29 30 31 32 33 34 35 36 37 38 39 40 41 42 43 44 45 46 47 48 49 50
000
ASUS43 KDMX 252108
RWRIA

WEATHER ROUNDUP FOR IOWA
NATIONAL WEATHER SERVICE DES MOINES IA
400 PM CDT THU AUG 25 2016

NOTE: "FAIR" INDICATES FEW OR NO CLOUDS BELOW 12,000 FEET WITH NO
SIGNIFICANT WEATHER AND/OR OBSTRUCTIONS TO VISIBILITY.

* - THESE STATIONS ARE NOT NWS STATIONS...THUS NOT UNDER NWS
QUALITY CONTROL.  THEY ALSO DO NOT REPORT WEATHER SUCH
AS PRECIPITATION OR FOG.

IAZ001>003-012>014-020>022-031>034-043>046-252200-
   NORTHWEST IOWA

CITY           SKY/WX    TMP DP  RH WIND       PRES   REMARKS
CARROLL *      MOSUNNY   77  59  53 CALM      30.11F
CHEROKEE *     MOSUNNY   75  59  58 NW6       30.13F
DENISON *      MOSUNNY   75  59  57 NW5       30.11S
LE MARS *      MOSUNNY   73  59  60 VRB5G13   30.14F
ORANGE CITY *  SUNNY     72  59  64 W9        30.14F
SHELDON *      SUNNY     73  59  60 NW9       30.12F
SIOUX CITY     SUNNY     76  57  51 N7        30.14S
SPENCER        SUNNY     75  56  51 NW13      30.12F
STORM LAKE *   MOSUNNY   73  57  56 VRB7      30.13F
$$

IAZ055>058-069>071-079>083-090>094-252200-
   SOUTHWEST IOWA

CITY           SKY/WX    TMP DP  RH WIND       PRES   REMARKS
ATLANTIC *     PTSUNNY   73  61  64 CALM      30.12F
AUDUBON *      CLOUDY    79  63  57 CALM      30.14S HX  80
CLARINDA *       N/A     75  63  64 MISG      30.14F
COUNCIL BLFS * MOSUNNY   75  59  57 NE6       30.13S
CRESTON *      CLOUDY    73  63  68 CALM      30.14S
HARLAN  *      MOSUNNY   75  59  57 CALM      30.16S
LAMONI         SUNNY     76  65  68 N8        30.11S
RED OAK *      PTSUNNY   73  63  68 N5        30.12F
SHENANDOAH *   CLOUDY    73 -35   1 N5        30.13F
$$

IAZ047>049-059>061-072>074-084-252200-
   CENTRAL IOWA

CITY           SKY/WX    TMP DP  RH WIND       PRES   REMARKS
AMES           CLOUDY    76  61  59 CALM      30.11S
ANKENY *         N/A    N/A N/A N/A MISG        N/A
BOONE *        CLOUDY    73  61  64 N5        30.11S
CHARITON *       N/A     72  64  78 MISG      30.11S
DES MOINES     CLOUDY    76  64  66 N5        30.09F
GRINNELL*      CLOUDY    72  64  75 NW5       30.11F
KNOXVILLE *    PTSUNNY   72  64  78 NW7       30.09F
MARSHALLTOWN   CLOUDY    73  63  70 W3        30.10F
NEWTON *       CLOUDY    73  64  73 N5        30.10F
PERRY *          N/A     75  63  65 CALM      30.11F
$$

IAZ004>006-015-016-023>025-035-036-252200-
   NORTH CENTRAL IOWA

CITY           SKY/WX    TMP DP  RH WIND       PRES   REMARKS
ALGONA *       CLOUDY    75  57  53 NW6       30.12S
ESTHERVILLE    SUNNY     73  60  63 NW9       30.11F
FORT DODGE *   MOSUNNY   79  61  53 W8        30.12S HX  80
MASON CITY     PTSUNNY   75  58  55 W12       30.12S
FOREST CITY *    N/A    N/A N/A N/A MISG        N/A
WEBSTER CITY * CLOUDY    77  61  57 VRB5      30.09F
IOWA FALLS *     N/A     75  62  62 SW5       30.12S
$$

IAZ007>011-017>019-026>030-037>042-050>054-066-252200-
   NORTHEAST IOWA

CITY           SKY/WX    TMP DP  RH WIND       PRES   REMARKS
CEDAR RAPIDS   PTSUNNY   74  66  76 NW6       30.08R
CHARLES CITY * CLOUDY    75  63  64 W7        30.10S
CLINTON *      CLOUDY    76  66  71 NW6       30.07S
DECORAH *      PTSUNNY   75  63  64 VRB6      30.08S
DUBUQUE        CLOUDY    75  62  64 NW7       30.08S
MONTICELLO *   CLOUDY    75  64  69 NW7       30.07S
OELWEIN *      CLOUDY    75  61  60 NW7       30.11S
WATERLOO       CLOUDY    76  58  53 W6        30.09S
$$

IAZ064-065-067-068-078-252200-
   EAST CENTRAL IOWA

CITY           SKY/WX    TMP DP  RH WIND       PRES   REMARKS
DAVENPORT      CLOUDY    76  66  71 NW3       30.07S
IOWA CITY      CLOUDY    78  62  57 W5        30.09R HX  80
MT. PLEASANT * SUNNY     80  62  53 CALM      30.07S HX  82
MUSCATINE *    CLOUDY    77  64  65 N5        30.06S
QUAD CITIES    MOSUNNY   80  65  59 NW5       30.06  HX  82
$$

IAZ062-063-075>077-085>089-095>099-252200-
   SOUTHEAST IOWA

CITY           SKY/WX    TMP DP  RH WIND       PRES   REMARKS
BURLINGTON     CLOUDY    79  62  56 NE6       30.05F HX  80
FAIRFIELD *    CLOUDY    75  64  69 VRB3      30.08S
FORT MADISON * SUNNY     77  66  69 CALM      30.06F
KEOKUK *       SUNNY     77  70  78 NE3       30.05S
OSKALOOSA *      N/A     76  65  70 N8        30.09S
OTTUMWA        CLOUDY    77  63  61 N6        30.08S
WASHINGTON *   MOSUNNY   77  66  69 VRB5      30.09R
$$

ABBREVIATIONS USED IN REMARKS
   TC - TEMPERATURES IN CELSIUS
  WCI - WIND CHILL INDEX
   HX - HEAT INDEX
  VSB - VISIBILITY
$$





USA.gov is the U.S. government's official web portal to all federal, state and local government web resources and services.